Wetterdaten: Jahr 2017
Datum Temp Feuchte Luftdruck Regen Wind Richtung Sonnenschein UV Solar Windben
01.01.2017 -1,7 C 88 % 1017,9 hPa 0,8 l/m 0,9 km/h S 2,92 h 0,6 UV-I 90 W/m 4,4 km/h
02.01.2017 0,1 C 97 % 1021,2 hPa 3,0 l/m 1,5 km/h W 0,00 h 0,0 UV-I 11 W/m 9,6 km/h
03.01.2017 1,1 C 97 % 1017,8 hPa 5,6 l/m 13,4 km/h W-SW 0,00 h 0,0 UV-I 28 W/m 33,4 km/h
04.01.2017 1,6 C 95 % 1011,7 hPa 6,6 l/m 19,3 km/h N-NW 0,08 h 0,5 UV-I 35 W/m 34,6 km/h
05.01.2017 -4,3 C 82 % 1032,5 hPa 0,0 l/m 0,5 km/h N-NW 2,25 h 0,6 UV-I 94 W/m 5,2 km/h
06.01.2017 -8,4 C 86 % 1039,8 hPa 0,0 l/m 1,3 km/h S 4,42 h 0,6 UV-I 121 W/m 4,4 km/h
07.01.2017 -3,0 C 92 % 1029,9 hPa 0,6 l/m 0,4 km/h S 0,00 h 0,5 UV-I 43 W/m 3,2 km/h
08.01.2017 0,2 C 98 % 1030,2 hPa 0,8 l/m 0,0 km/h N 0,00 h 0,0 UV-I 25 W/m 0,0 km/h
09.01.2017 0,0 C 95 % 1020,6 hPa 0,2 l/m 7,1 km/h S-SO 0,58 h 0,5 UV-I 57 W/m 9,6 km/h
10.01.2017 0,2 C 96 % 1010,6 hPa 3,6 l/m 5,8 km/h S-SO 0,00 h 0,0 UV-I 33 W/m 9,3 km/h
11.01.2017 2,3 C 95 % 1004,1 hPa 4,8 l/m 8,7 km/h S 0,17 h 0,0 UV-I 33 W/m 22,5 km/h
12.01.2017 2,4 C 91 % 1000,4 hPa 4,0 l/m 6,9 km/h SW 0,08 h 0,5 UV-I 47 W/m 23,7 km/h
13.01.2017 0,1 C 95 % 995,6 hPa 8,2 l/m 14,3 km/h S-SW 0,00 h 0,0 UV-I 25 W/m 29,3 km/h
14.01.2017 0,2 C 95 % 1009,4 hPa 5,2 l/m 9,6 km/h NW 0,08 h 0,5 UV-I 54 W/m 20,9 km/h
15.01.2017 -0,9 C 96 % 1019,5 hPa 0,4 l/m 2,5 km/h NW 0,00 h 0,0 UV-I 22 W/m 8,9 km/h
16.01.2017 -3,7 C 92 % 1028,3 hPa 0,0 l/m 0,2 km/h N-NO 3,17 h 0,6 UV-I 133 W/m 0,8 km/h
17.01.2017 -4,1 C 94 % 1037,7 hPa 0,0 l/m 0,0 km/h N-NO 0,08 h 0,6 UV-I 75 W/m 0,0 km/h
18.01.2017 -4,5 C 91 % 1039,4 hPa 0,0 l/m 4,2 km/h SO 0,42 h 0,6 UV-I 89 W/m 12,9 km/h
19.01.2017 -4,4 C 85 % 1037,9 hPa 0,0 l/m 0,6 km/h SO 5,33 h 0,7 UV-I 153 W/m 2,0 km/h
20.01.2017 -1,6 C 77 % 1034,8 hPa 0,0 l/m 0,0 km/h O-SO 3,50 h 0,7 UV-I 121 W/m 0,0 km/h
21.01.2017 -1,0 C 80 % 1030,1 hPa 0,0 l/m 3,3 km/h SO 6,25 h 0,8 UV-I 162 W/m 8,4 km/h
22.01.2017 -4,6 C 85 % 1026,1 hPa 0,2 l/m 0,0 km/h S-SO 5,83 h 0,8 UV-I 162 W/m 0,0 km/h
23.01.2017 -4,6 C 95 % 1026,6 hPa 0,0 l/m 0,0 km/h N-NW 0,00 h 0,5 UV-I 51 W/m 0,0 km/h
24.01.2017 -1,8 C 96 % 1029,8 hPa 0,0 l/m 0,0 km/h N 0,00 h 0,5 UV-I 68 W/m 0,0 km/h
25.01.2017 -1,6 C 89 % 1030,7 hPa 0,0 l/m 9,0 km/h SO 0,17 h 0,7 UV-I 80 W/m 20,9 km/h
26.01.2017 -2,0 C 83 % 1024,9 hPa 0,0 l/m 10,9 km/h S-SO 6,17 h 0,8 UV-I 168 W/m 16,9 km/h
27.01.2017 -1,3 C 80 % 1021,0 hPa 0,0 l/m 4,9 km/h S-SO 5,83 h 0,8 UV-I 161 W/m 7,3 km/h
28.01.2017 3,2 C 77 % 1017,9 hPa 0,0 l/m 0,9 km/h S 6,25 h 0,9 UV-I 172 W/m 4,8 km/h
29.01.2017 2,0 C 90 % 1019,3 hPa 0,4 l/m 3,2 km/h S 2,42 h 0,7 UV-I 107 W/m 7,7 km/h
30.01.2017 2,4 C 95 % 1009,8 hPa 9,8 l/m 9,5 km/h S-SO 0,00 h 0,5 UV-I 46 W/m 21,3 km/h
31.01.2017 0,4 C 98 % 1017,0 hPa 0,8 l/m 0,0 km/h NW 0,00 h 0,6 UV-I 42 W/m 0,0 km/h
01.02.2017 0,5 C 92 % 1015,9 hPa 0,0 l/m 16,1 km/h S-SO 1,75 h 0,9 UV-I 116 W/m 26,9 km/h
02.02.2017 3,9 C 95 % 1008,6 hPa 1,4 l/m 3,0 km/h S-SO 2,42 h 0,9 UV-I 131 W/m 6,4 km/h
03.02.2017 4,6 C 98 % 1004,3 hPa 2,6 l/m 0,0 km/h S 0,58 h 0,5 UV-I 45 W/m 0,0 km/h
04.02.2017 5,3 C 88 % 1000,7 hPa 0,6 l/m 2,2 km/h S-SO 4,42 h 0,8 UV-I 150 W/m 10,9 km/h
05.02.2017 2,5 C 92 % 1004,7 hPa 3,8 l/m 0,1 km/h S-SW 0,33 h 0,7 UV-I 93 W/m 2,0 km/h
06.02.2017 1,1 C 96 % 1018,7 hPa 0,0 l/m 0,6 km/h N 0,00 h 0,0 UV-I 40 W/m 4,0 km/h
07.02.2017 -0,9 C 94 % 1019,6 hPa 0,4 l/m 2,6 km/h O-SO 0,00 h 0,5 UV-I 34 W/m 12,9 km/h
08.02.2017 -2,0 C 90 % 1026,4 hPa 0,0 l/m 4,0 km/h O-SO 0,00 h 0,5 UV-I 67 W/m 11,3 km/h
09.02.2017 -2,7 C 85 % 1027,8 hPa 0,0 l/m 1,7 km/h O-SO 1,58 h 0,7 UV-I 108 W/m 6,4 km/h
10.02.2017 -2,3 C 89 % 1023,3 hPa 0,0 l/m 1,2 km/h O-SO 0,00 h 0,5 UV-I 41 W/m 7,3 km/h
11.02.2017 -0,1 C 91 % 1022,4 hPa 0,0 l/m 3,2 km/h O-SO 1,00 h 0,6 UV-I 103 W/m 11,7 km/h
12.02.2017 -0,7 C 92 % 1029,7 hPa 0,0 l/m 2,1 km/h O-SO 0,00 h 0,6 UV-I 70 W/m 10,1 km/h
13.02.2017 2,2 C 71 % 1031,3 hPa 0,0 l/m 8,1 km/h O-SO 6,92 h 0,9 UV-I 219 W/m 23,3 km/h
14.02.2017 2,3 C 68 % 1031,3 hPa 0,0 l/m 4,8 km/h SO 7,08 h 1,0 UV-I 232 W/m 17,3 km/h
15.02.2017 3,3 C 76 % 1032,5 hPa 0,0 l/m 0,3 km/h S 7,17 h 1,0 UV-I 228 W/m 2,0 km/h
16.02.2017 7,1 C 85 % 1027,6 hPa 0,0 l/m 0,1 km/h SW 0,92 h 0,7 UV-I 104 W/m 1,6 km/h
17.02.2017 5,0 C 96 % 1023,6 hPa 7,2 l/m 2,6 km/h W 0,00 h 0,0 UV-I 24 W/m 10,9 km/h
18.02.2017 2,8 C 89 % 1025,7 hPa 0,0 l/m 0,1 km/h NW 0,75 h 1,0 UV-I 117 W/m 2,0 km/h
19.02.2017 4,2 C 94 % 1020,3 hPa 5,8 l/m 1,1 km/h S-SW 0,42 h 0,7 UV-I 76 W/m 9,2 km/h
20.02.2017 7,5 C 97 % 1013,3 hPa 8,2 l/m 10,2 km/h S-SW 0,00 h 0,7 UV-I 53 W/m 23,3 km/h
21.02.2017 6,0 C 89 % 1012,1 hPa 1,8 l/m 6,1 km/h NW 2,17 h 0,9 UV-I 144 W/m 14,9 km/h
22.02.2017 7,6 C 96 % 1003,5 hPa 16,6 l/m 13,3 km/h S-SW 0,00 h 0,0 UV-I 29 W/m 32,2 km/h
23.02.2017 6,5 C 92 % 992,0 hPa 19,4 l/m 17,5 km/h S-SW 0,08 h 0,5 UV-I 46 W/m 38,7 km/h
24.02.2017 1,6 C 88 % 1012,7 hPa 4,0 l/m 5,2 km/h NW 1,92 h 0,9 UV-I 149 W/m 13,3 km/h
25.02.2017 4,6 C 75 % 1017,1 hPa 0,2 l/m 3,2 km/h S-SW 2,17 h 1,1 UV-I 156 W/m 14,5 km/h
26.02.2017 8,3 C 78 % 1010,1 hPa 0,0 l/m 7,3 km/h S-SW 0,00 h 0,8 UV-I 102 W/m 16,5 km/h
27.02.2017 8,5 C 82 % 996,9 hPa 2,2 l/m 5,6 km/h S 0,83 h 1,0 UV-I 137 W/m 11,3 km/h
28.02.2017 3,7 C 83 % 991,8 hPa 3,8 l/m 11,2 km/h S 0,92 h 0,8 UV-I 120 W/m 23,3 km/h
01.03.2017 3,8 C 90 % 999,3 hPa 8,8 l/m 3,9 km/h S-SW 1,83 h 0,9 UV-I 139 W/m 10,9 km/h
02.03.2017 4,4 C 87 % 1009,0 hPa 7,2 l/m 14,7 km/h S-SW 1,00 h 0,6 UV-I 93 W/m 36,6 km/h
03.03.2017 5,8 C 71 % 1005,1 hPa 0,0 l/m 7,2 km/h S-SO 4,58 h 1,2 UV-I 204 W/m 12,9 km/h
04.03.2017 10,5 C 66 % 992,8 hPa 0,0 l/m 5,8 km/h S 3,08 h 1,1 UV-I 187 W/m 16,9 km/h
05.03.2017 6,4 C 80 % 998,2 hPa 2,0 l/m 13,4 km/h S 1,33 h 1,0 UV-I 152 W/m 26,1 km/h
06.03.2017 4,3 C 94 % 1001,0 hPa 5,6 l/m 0,2 km/h S-SW 1,00 h 0,8 UV-I 124 W/m 4,0 km/h
07.03.2017 4,7 C 95 % 1014,6 hPa 5,2 l/m 0,4 km/h W-NW 0,92 h 1,0 UV-I 116 W/m 6,0 km/h
08.03.2017 4,6 C 96 % 1014,3 hPa 14,4 l/m 4,4 km/h S 0,00 h 0,7 UV-I 66 W/m 8,1 km/h
09.03.2017 6,2 C 89 % 1017,4 hPa 3,2 l/m 9,0 km/h NW 1,67 h 1,1 UV-I 130 W/m 18,1 km/h
10.03.2017 4,5 C 85 % 1026,6 hPa 0,0 l/m 2,1 km/h N-NW 3,50 h 1,3 UV-I 230 W/m 6,4 km/h
11.03.2017 6,5 C 71 % 1021,9 hPa 0,0 l/m 2,5 km/h S-SO 6,58 h 1,6 UV-I 279 W/m 7,6 km/h
12.03.2017 5,3 C 70 % 1018,3 hPa 0,0 l/m 7,8 km/h SO 7,58 h 1,5 UV-I 288 W/m 18,5 km/h
13.03.2017 8,0 C 70 % 1025,6 hPa 0,0 l/m 1,0 km/h S-SO 8,33 h 1,6 UV-I 312 W/m 5,2 km/h
14.03.2017 9,4 C 79 % 1029,5 hPa 0,0 l/m 4,2 km/h W-SW 3,33 h 1,5 UV-I 221 W/m 19,3 km/h
15.03.2017 8,4 C 75 % 1029,8 hPa 0,2 l/m 0,7 km/h NW 5,58 h 1,6 UV-I 255 W/m 5,2 km/h
16.03.2017 6,3 C 80 % 1021,0 hPa 0,0 l/m 0,1 km/h S-SW 9,50 h 1,8 UV-I 328 W/m 1,2 km/h
17.03.2017 6,5 C 72 % 1011,5 hPa 0,2 l/m 4,1 km/h W-NW 1,42 h 1,1 UV-I 133 W/m 14,1 km/h
18.03.2017 6,9 C 92 % 1005,3 hPa 11,6 l/m 7,1 km/h N-NW 0,00 h 0,7 UV-I 52 W/m 16,9 km/h
19.03.2017 8,8 C 94 % 1006,0 hPa 5,2 l/m 11,6 km/h S-SW 0,00 h 0,5 UV-I 41 W/m 27,0 km/h
20.03.2017 9,2 C 92 % 1005,7 hPa 4,2 l/m 11,6 km/h S-SW 0,17 h 1,0 UV-I 86 W/m 25,3 km/h
21.03.2017 6,3 C 79 % 1009,7 hPa 1,6 l/m 0,6 km/h S-SW 2,08 h 1,2 UV-I 160 W/m 6,4 km/h
22.03.2017 5,9 C 73 % 1015,1 hPa 0,2 l/m 1,5 km/h O-SO 5,42 h 1,5 UV-I 276 W/m 7,7 km/h
23.03.2017 7,7 C 82 % 1018,8 hPa 0,0 l/m 1,7 km/h N-NO 4,92 h 1,6 UV-I 271 W/m 8,5 km/h
24.03.2017 7,1 C 75 % 1029,7 hPa 0,0 l/m 2,2 km/h N-NO 8,83 h 1,7 UV-I 360 W/m 7,6 km/h
25.03.2017 6,1 C 70 % 1027,6 hPa 0,0 l/m 2,8 km/h N-NO 9,08 h 1,9 UV-I 349 W/m 8,0 km/h
26.03.2017 7,3 C 74 % 1024,7 hPa 0,0 l/m 0,1 km/h SO 9,42 h 2,0 UV-I 371 W/m 2,0 km/h
27.03.2017 7,6 C 64 % 1023,4 hPa 0,0 l/m 3,2 km/h SO 9,83 h 2,2 UV-I 387 W/m 6,4 km/h
28.03.2017 12,3 C 60 % 1020,5 hPa 0,0 l/m 2,3 km/h W-SW 9,92 h 2,0 UV-I 374 W/m 7,7 km/h
29.03.2017 11,5 C 80 % 1023,3 hPa 0,0 l/m 3,6 km/h W-SW 3,17 h 1,2 UV-I 155 W/m 10,9 km/h
30.03.2017 14,2 C 73 % 1023,1 hPa 0,0 l/m 0,5 km/h S-SW 5,75 h 2,1 UV-I 308 W/m 2,8 km/h
31.03.2017 14,5 C 63 % 1013,3 hPa 0,0 l/m 6,1 km/h S 8,92 h 2,0 UV-I 326 W/m 9,3 km/h
01.04.2017 13,2 C 77 % 1011,0 hPa 2,0 l/m 0,4 km/h SO 5,83 h 1,6 UV-I 235 W/m 5,7 km/h
02.04.2017 10,2 C 81 % 1019,8 hPa 0,0 l/m 0,6 km/h NW 5,50 h 1,7 UV-I 287 W/m 2,8 km/h
03.04.2017 7,8 C 85 % 1025,8 hPa 0,0 l/m 1,0 km/h N 5,08 h 2,1 UV-I 290 W/m 3,6 km/h
04.04.2017 7,1 C 82 % 1024,0 hPa 0,2 l/m 0,0 km/h N-NO 9,25 h 2,2 UV-I 379 W/m 0,0 km/h
05.04.2017 6,9 C 76 % 1023,3 hPa 0,0 l/m 2,3 km/h N-NW 5,33 h 1,8 UV-I 243 W/m 10,9 km/h
06.04.2017 7,4 C 76 % 1025,3 hPa 0,2 l/m 1,2 km/h NW 2,58 h 1,9 UV-I 248 W/m 12,9 km/h
07.04.2017 9,0 C 83 % 1023,1 hPa 0,0 l/m 1,2 km/h W 0,08 h 1,2 UV-I 116 W/m 10,1 km/h
08.04.2017 10,4 C 79 % 1023,8 hPa 0,0 l/m 0,1 km/h NW 1,83 h 1,7 UV-I 201 W/m 2,4 km/h
09.04.2017 11,1 C 75 % 1021,7 hPa 0,2 l/m 0,0 km/h S 11,00 h 2,7 UV-I 411 W/m 0,0 km/h
10.04.2017 10,4 C 69 % 1018,7 hPa 0,0 l/m 4,9 km/h N-NW 2,50 h 1,1 UV-I 157 W/m 20,9 km/h
11.04.2017 7,9 C 74 % 1023,2 hPa 0,0 l/m 7,2 km/h S-SW 2,25 h 1,6 UV-I 182 W/m 21,3 km/h
12.04.2017 8,5 C 82 % 1013,0 hPa 3,8 l/m 7,0 km/h SW 2,25 h 1,6 UV-I 182 W/m 24,1 km/h
13.04.2017 7,4 C 84 % 1013,3 hPa 2,6 l/m 3,2 km/h NW 0,33 h 1,1 UV-I 111 W/m 11,6 km/h
14.04.2017 7,3 C 81 % 1015,2 hPa 0,0 l/m 0,8 km/h W 2,00 h 1,7 UV-I 185 W/m 6,0 km/h
15.04.2017 6,9 C 81 % 1012,7 hPa 5,0 l/m 3,9 km/h S-SW 0,67 h 1,0 UV-I 101 W/m 18,9 km/h
16.04.2017 6,7 C 83 % 1017,0 hPa 2,0 l/m 3,9 km/h N-NW 3,42 h 2,0 UV-I 271 W/m 6,4 km/h
17.04.2017 5,0 C 81 % 1016,4 hPa 5,8 l/m 1,7 km/h N-NW 2,58 h 1,9 UV-I 232 W/m 6,0 km/h
18.04.2017 3,7 C 83 % 1026,2 hPa 2,0 l/m 5,2 km/h N-NW 1,83 h 1,4 UV-I 171 W/m 15,3 km/h
19.04.2017 2,0 C 75 % 1034,8 hPa 0,0 l/m 0,9 km/h N-NO 4,33 h 1,8 UV-I 265 W/m 6,1 km/h
20.04.2017 5,3 C 62 % 1034,4 hPa 0,2 l/m 1,4 km/h NW 10,42 h 2,6 UV-I 430 W/m 3,6 km/h
21.04.2017 8,7 C 78 % 1026,1 hPa 0,2 l/m 4,6 km/h SW 0,50 h 1,6 UV-I 147 W/m 24,5 km/h
22.04.2017 5,9 C 78 % 1021,7 hPa 3,2 l/m 9,3 km/h N-NW 1,67 h 1,7 UV-I 200 W/m 22,5 km/h
23.04.2017 4,0 C 81 % 1023,0 hPa 0,8 l/m 1,0 km/h NW 1,08 h 1,7 UV-I 165 W/m 5,6 km/h
24.04.2017 8,6 C 72 % 1011,9 hPa 0,0 l/m 1,3 km/h S-SW 8,25 h 2,5 UV-I 377 W/m 8,1 km/h
25.04.2017 4,1 C 85 % 1007,0 hPa 5,4 l/m 4,6 km/h W 2,25 h 2,0 UV-I 215 W/m 12,5 km/h
26.04.2017 4,2 C 76 % 1012,1 hPa 0,2 l/m 4,9 km/h NW 6,67 h 2,1 UV-I 330 W/m 8,9 km/h
27.04.2017 4,5 C 73 % 1014,9 hPa 0,0 l/m 1,0 km/h W-NW 7,75 h 2,1 UV-I 381 W/m 6,0 km/h
28.04.2017 6,2 C 77 % 1013,7 hPa 0,0 l/m 0,5 km/h W-NW 6,92 h 1,9 UV-I 320 W/m 3,2 km/h
29.04.2017 5,2 C 78 % 1017,5 hPa 0,0 l/m 0,6 km/h W 2,00 h 1,6 UV-I 219 W/m 2,0 km/h
30.04.2017 10,3 C 55 % 1012,5 hPa 0,0 l/m 11,5 km/h SO 11,50 h 2,6 UV-I 449 W/m 24,9 km/h
01.05.2017 9,3 C 79 % 1012,1 hPa 0,4 l/m 3,0 km/h SO 4,67 h 1,8 UV-I 248 W/m 10,4 km/h
02.05.2017 7,3 C 96 % 1014,8 hPa 11,2 l/m 1,2 km/h N-NO 0,67 h 1,0 UV-I 110 W/m 4,8 km/h
03.05.2017 10,3 C 83 % 1019,5 hPa 0,0 l/m 2,8 km/h N-NO 4,67 h 2,0 UV-I 267 W/m 10,4 km/h
04.05.2017 7,7 C 91 % 1018,0 hPa 0,0 l/m 2,2 km/h N-NO 0,48 h 1,1 UV-I 124 W/m 12,9 km/h
05.05.2017 7,6 C 93 % 1019,3 hPa 0,2 l/m 0,0 km/h N 0,17 h 0,9 UV-I 77 W/m 0,0 km/h
06.05.2017 12,1 C 81 % 1012,1 hPa 0,0 l/m 2,5 km/h O-SO 6,67 h 2,7 UV-I 380 W/m 10,0 km/h
07.05.2017 13,0 C 80 % 1012,9 hPa 0,2 l/m 1,0 km/h N-NW 4,25 h 1,8 UV-I 232 W/m 4,8 km/h
08.05.2017 7,8 C 90 % 1018,1 hPa 0,4 l/m 0,8 km/h NW 0,75 h 1,0 UV-I 123 W/m 7,3 km/h
09.05.2017 7,6 C 66 % 1017,4 hPa 0,0 l/m 1,5 km/h N-NO 6,92 h 2,7 UV-I 370 W/m 4,4 km/h
10.05.2017 8,6 C 71 % 1007,9 hPa 0,0 l/m 0,9 km/h W-NW 11,75 h 3,0 UV-I 456 W/m 3,6 km/h
11.05.2017 15,0 C 68 % 999,8 hPa 0,0 l/m 6,8 km/h S-SO 7,67 h 2,7 UV-I 371 W/m 14,1 km/h
12.05.2017 13,2 C 91 % 1002,8 hPa 3,8 l/m 2,3 km/h S-SO 2,67 h 1,8 UV-I 171 W/m 4,0 km/h
13.05.2017 14,8 C 84 % 1011,0 hPa 0,8 l/m 0,9 km/h S 4,83 h 2,5 UV-I 301 W/m 4,0 km/h
14.05.2017 15,0 C 82 % 1020,6 hPa 0,2 l/m 0,7 km/h S-SW 5,93 h 2,8 UV-I 341 W/m 3,6 km/h
15.05.2017 14,4 C 73 % 1028,1 hPa 0,2 l/m 0,6 km/h NW 11,42 h 3,1 UV-I 469 W/m 2,8 km/h
16.05.2017 18,4 C 70 % 1026,5 hPa 0,0 l/m 1,8 km/h S 3,83 h 2,6 UV-I 272 W/m 4,0 km/h
17.05.2017 21,3 C 61 % 1017,0 hPa 0,0 l/m 5,0 km/h SO 9,42 h 3,7 UV-I 424 W/m 13,7 km/h
18.05.2017 19,1 C 79 % 1009,8 hPa 5,4 l/m 2,9 km/h S-SO 6,00 h 2,6 UV-I 280 W/m 6,4 km/h
19.05.2017 12,2 C 94 % 1011,0 hPa 8,4 l/m 0,3 km/h W-NW 0,08 h 1,5 UV-I 78 W/m 3,2 km/h
20.05.2017 13,4 C 73 % 1021,6 hPa 0,2 l/m 0,5 km/h S-SW 9,58 h 3,0 UV-I 419 W/m 2,8 km/h
21.05.2017 14,4 C 66 % 1025,1 hPa 0,0 l/m 0,2 km/h N-NO 10,08 h 3,0 UV-I 425 W/m 2,0 km/h
22.05.2017 16,6 C 61 % 1018,0 hPa 0,0 l/m 1,5 km/h SO 9,25 h 2,8 UV-I 399 W/m 8,5 km/h
23.05.2017 17,1 C 67 % 1016,9 hPa 0,0 l/m 9,5 km/h N-NW 8,90 h 2,7 UV-I 367 W/m 23,0 km/h
24.05.2017 13,4 C 77 % 1021,6 hPa 0,0 l/m 1,2 km/h NW 6,27 h 2,4 UV-I 291 W/m 5,6 km/h
25.05.2017 16,0 C 76 % 1022,5 hPa 0,0 l/m 3,2 km/h N-NW 5,92 h 3,2 UV-I 352 W/m 5,2 km/h
26.05.2017 18,9 C 68 % 1020,7 hPa 0,0 l/m 0,6 km/h N-NO 11,83 h 3,9 UV-I 476 W/m 4,0 km/h
27.05.2017 21,6 C 64 % 1018,3 hPa 0,0 l/m 5,6 km/h SO 12,92 h 3,9 UV-I 483 W/m 10,1 km/h
28.05.2017 19,5 C 86 % 1016,7 hPa 3,0 l/m 0,0 km/h S 5,92 h 2,0 UV-I 241 W/m 0,0 km/h
29.05.2017 24,2 C 74 % 1010,6 hPa 0,0 l/m 2,0 km/h SO 12,00 h 3,6 UV-I 481 W/m 6,0 km/h
30.05.2017 20,9 C 80 % 1012,3 hPa 1,4 l/m 3,3 km/h N-NW 5,67 h 2,8 UV-I 293 W/m 19,8 km/h
31.05.2017 17,3 C 74 % 1019,8 hPa 0,0 l/m 1,3 km/h N-NW 3,85 h 2,7 UV-I 282 W/m 4,4 km/h
01.06.2017 16,8 C 68 % 1020,3 hPa 0,0 l/m 0,9 km/h N-NW 13,00 h 3,8 UV-I 490 W/m 2,4 km/h
02.06.2017 19,8 C 66 % 1015,5 hPa 0,0 l/m 1,6 km/h SO 9,58 h 3,2 UV-I 408 W/m 4,8 km/h
03.06.2017 20,3 C 77 % 1010,4 hPa 0,0 l/m 0,0 km/h S 3,25 h 2,3 UV-I 259 W/m 0,0 km/h
04.06.2017 14,6 C 85 % 1013,2 hPa 4,2 l/m 0,2 km/h N-NW 3,67 h 2,9 UV-I 284 W/m 1,6 km/h
05.06.2017 15,8 C 73 % 1011,4 hPa 0,0 l/m 0,0 km/h S 10,17 h 3,2 UV-I 421 W/m 0,0 km/h
06.06.2017 14,2 C 74 % 1002,0 hPa 0,0 l/m 10,5 km/h S 4,50 h 1,6 UV-I 230 W/m 18,1 km/h
07.06.2017 11,0 C 83 % 1011,4 hPa 1,6 l/m 10,8 km/h S 1,58 h 1,7 UV-I 179 W/m 16,9 km/h
08.06.2017 16,7 C 71 % 1014,8 hPa 0,8 l/m 7,4 km/h S 6,83 h 2,9 UV-I 293 W/m 15,3 km/h
09.06.2017 15,3 C 76 % 1012,5 hPa 6,6 l/m 1,7 km/h S 4,00 h 1,7 UV-I 219 W/m 6,0 km/h
10.06.2017 17,2 C 72 % 1019,4 hPa 0,2 l/m 0,2 km/h S-SW 8,32 h 3,6 UV-I 391 W/m 1,6 km/h
11.06.2017 20,0 C 80 % 1013,9 hPa 0,6 l/m 3,5 km/h S 6,50 h 4,0 UV-I 337 W/m 5,6 km/h
12.06.2017 15,9 C 66 % 1014,3 hPa 0,0 l/m 2,4 km/h W 1,42 h 2,4 UV-I 226 W/m 11,7 km/h
13.06.2017 15,5 C 73 % 1017,8 hPa 0,0 l/m 1,2 km/h NW 1,42 h 2,1 UV-I 192 W/m 9,3 km/h
14.06.2017 17,6 C 68 % 1018,0 hPa 0,0 l/m 0,0 km/h N 11,75 h 3,9 UV-I 460 W/m 0,0 km/h
15.06.2017 18,9 C 80 % 1012,9 hPa 17,6 l/m 2,5 km/h S-SO 8,17 h 3,9 UV-I 368 W/m 5,2 km/h
16.06.2017 15,3 C 77 % 1018,5 hPa 0,2 l/m 2,6 km/h N-NW 1,50 h 2,0 UV-I 173 W/m 8,0 km/h
17.06.2017 14,2 C 93 % 1024,2 hPa 0,2 l/m 0,2 km/h W 0,00 h 1,1 UV-I 93 W/m 2,0 km/h
18.06.2017 19,5 C 80 % 1023,6 hPa 0,0 l/m 0,0 km/h NO 5,33 h 3,2 UV-I 309 W/m 0,0 km/h
19.06.2017 22,0 C 70 % 1018,3 hPa 0,0 l/m 1,5 km/h SO 13,08 h 4,1 UV-I 480 W/m 3,6 km/h
20.06.2017 21,7 C 72 % 1016,3 hPa 0,0 l/m 0,5 km/h N-NO 10,17 h 3,4 UV-I 398 W/m 6,0 km/h
21.06.2017 20,5 C 67 % 1015,8 hPa 0,0 l/m 0,0 km/h N-NO 13,00 h 4,0 UV-I 460 W/m 1,2 km/h
22.06.2017 23,7 C 75 % 1008,0 hPa 8,2 l/m 13,1 km/h S-SO 8,58 h 3,3 UV-I 318 W/m 16,9 km/h
23.06.2017 19,5 C 73 % 1012,5 hPa 0,0 l/m 3,8 km/h W-NW 4,60 h 2,5 UV-I 291 W/m 12,9 km/h
24.06.2017 17,0 C 82 % 1012,6 hPa 1,0 l/m 2,4 km/h S-SW 0,83 h 2,3 UV-I 173 W/m 10,1 km/h
25.06.2017 16,2 C 90 % 1010,3 hPa 3,2 l/m 3,5 km/h S-SW 0,83 h 2,1 UV-I 132 W/m 9,7 km/h
26.06.2017 16,3 C 75 % 1011,4 hPa 1,4 l/m 3,4 km/h N-NW 6,83 h 3,5 UV-I 329 W/m 10,4 km/h
27.06.2017 17,0 C 80 % 1007,6 hPa 0,2 l/m 0,6 km/h O-SO 3,92 h 2,7 UV-I 236 W/m 2,8 km/h
28.06.2017 17,0 C 91 % 996,7 hPa 13,4 l/m 0,3 km/h SO 1,83 h 1,1 UV-I 131 W/m 4,0 km/h
29.06.2017 16,3 C 95 % 996,9 hPa 0,6 l/m 0,5 km/h W-NW 0,17 h 1,4 UV-I 153 W/m 4,4 km/h
30.06.2017 16,9 C 77 % 1002,6 hPa 1,8 l/m 1,1 km/h S-SW 1,83 h 2,0 UV-I 212 W/m 7,6 km/h
01.07.2017 14,7 C 95 % 1008,4 hPa 10,2 l/m 2,1 km/h S-SW 0,08 h 1,4 UV-I 79 W/m 6,9 km/h
02.07.2017 15,0 C 87 % 1017,3 hPa 5,0 l/m 0,4 km/h W-NW 0,75 h 1,7 UV-I 143 W/m 3,6 km/h
03.07.2017 17,1 C 70 % 1018,9 hPa 0,0 l/m 3,6 km/h S-SW 8,25 h 3,6 UV-I 391 W/m 6,0 km/h
04.07.2017 17,0 C 80 % 1018,8 hPa 0,0 l/m 1,3 km/h N-NW 4,08 h 2,9 UV-I 312 W/m 4,4 km/h
05.07.2017 19,4 C 73 % 1016,8 hPa 0,0 l/m 1,5 km/h N-NW 7,52 h 3,0 UV-I 364 W/m 4,4 km/h
06.07.2017 20,9 C 71 % 1015,9 hPa 0,0 l/m 0,1 km/h S-SO 10,67 h 3,7 UV-I 444 W/m 1,2 km/h
07.07.2017 22,1 C 77 % 1012,8 hPa 3,2 l/m 3,9 km/h NW 8,92 h 3,2 UV-I 389 W/m 17,3 km/h
08.07.2017 16,4 C 53 % 1014,4 hPa 0,0 l/m 0,8 km/h W-NW 5,48 h 3,4 UV-I 407 W/m 4,0 km/h
09.07.2017 20,8 C 75 % 1011,4 hPa 0,0 l/m 0,0 km/h N-NO 5,00 h 2,9 UV-I 347 W/m 0,0 km/h
10.07.2017 19,7 C 88 % 1006,2 hPa 20,0 l/m 0,6 km/h N-NW 2,25 h 2,6 UV-I 229 W/m 3,2 km/h
11.07.2017 18,1 C 79 % 1010,1 hPa 0,0 l/m 1,2 km/h S-SW 4,92 h 2,9 UV-I 333 W/m 4,0 km/h
12.07.2017 14,1 C 94 % 1010,7 hPa 33,2 l/m 0,7 km/h S 0,33 h 1,1 UV-I 80 W/m 7,2 km/h
13.07.2017 13,3 C 82 % 1020,4 hPa 0,0 l/m 0,0 km/h N-NW 5,33 h 2,6 UV-I 305 W/m 0,0 km/h
14.07.2017 14,9 C 82 % 1015,1 hPa 3,2 l/m 0,8 km/h N-NW 6,48 h 2,8 UV-I 314 W/m 4,8 km/h
15.07.2017 14,8 C 82 % 1021,1 hPa 2,0 l/m 0,0 km/h W-NW 1,98 h 1,7 UV-I 176 W/m 2,4 km/h
16.07.2017 17,5 C 87 % 1021,3 hPa 2,6 l/m 3,0 km/h S-SW 1,25 h 2,2 UV-I 202 W/m 4,8 km/h
17.07.2017 17,0 C 85 % 1020,8 hPa 4,0 l/m 0,1 km/h N-NW 5,33 h 2,9 UV-I 301 W/m 1,2 km/h
18.07.2017 20,0 C 67 % 1018,1 hPa 0,2 l/m 1,5 km/h SO 12,75 h 3,9 UV-I 477 W/m 8,4 km/h
19.07.2017 20,4 C 80 % 1009,8 hPa 10,6 l/m 5,9 km/h S-SO 9,42 h 3,2 UV-I 387 W/m 11,3 km/h
20.07.2017 20,1 C 79 % 1008,7 hPa 3,8 l/m 2,2 km/h S 3,25 h 2,4 UV-I 223 W/m 4,0 km/h
21.07.2017 19,0 C 78 % 1012,3 hPa 0,0 l/m 0,3 km/h SO 7,77 h 3,0 UV-I 371 W/m 2,0 km/h
22.07.2017 19,5 C 85 % 1011,2 hPa 7,0 l/m 4,2 km/h S-SO 5,75 h 3,2 UV-I 337 W/m 5,6 km/h
23.07.2017 16,6 C 76 % 1011,8 hPa 9,2 l/m 5,0 km/h S-SW 5,25 h 2,8 UV-I 314 W/m 8,9 km/h
24.07.2017 13,1 C 95 % 1008,0 hPa 34,6 l/m 1,6 km/h N-NW 0,00 h 0,8 UV-I 57 W/m 6,4 km/h
25.07.2017 13,9 C 97 % 1004,6 hPa 37,4 l/m 11,1 km/h N-NW 0,00 h 0,9 UV-I 55 W/m 27,0 km/h
26.07.2017 16,2 C 84 % 1007,3 hPa 2,4 l/m 1,4 km/h N-NW 1,08 h 1,8 UV-I 146 W/m 6,0 km/h
27.07.2017 17,7 C 77 % 1006,2 hPa 2,0 l/m 0,0 km/h S-SW 3,75 h 2,3 UV-I 253 W/m 1,2 km/h
28.07.2017 16,7 C 79 % 1011,3 hPa 0,4 l/m 1,2 km/h S-SW 5,02 h 2,6 UV-I 298 W/m 7,2 km/h
29.07.2017 18,9 C 83 % 1011,0 hPa 0,2 l/m 0,9 km/h S 3,33 h 2,9 UV-I 275 W/m 5,2 km/h
30.07.2017 22,0 C 68 % 1008,0 hPa 0,2 l/m 10,2 km/h S 7,25 h 3,0 UV-I 351 W/m 16,1 km/h
31.07.2017 18,8 C 77 % 1013,1 hPa 0,0 l/m 0,9 km/h S-SW 10,58 h 2,9 UV-I 402 W/m 4,0 km/h
01.08.2017 18,8 C 88 % 1014,0 hPa 8,2 l/m 0,0 km/h S-SO 2,58 h 1,6 UV-I 176 W/m 0,0 km/h
02.08.2017 18,8 C 85 % 1016,2 hPa 2,0 l/m 1,6 km/h S-SO 4,67 h 2,8 UV-I 273 W/m 6,4 km/h
03.08.2017 20,3 C 77 % 1009,4 hPa 4,2 l/m 3,8 km/h S 2,75 h 2,4 UV-I 222 W/m 12,1 km/h
04.08.2017 18,8 C 68 % 1011,4 hPa 0,0 l/m 2,6 km/h S-SW 4,40 h 2,9 UV-I 281 W/m 7,3 km/h
05.08.2017 14,4 C 93 % 1014,5 hPa 27,6 l/m 0,0 km/h W-NW 0,25 h 1,6 UV-I 112 W/m 0,0 km/h
06.08.2017 14,5 C 80 % 1021,8 hPa 0,2 l/m 1,0 km/h S-SW 9,10 h 3,1 UV-I 431 W/m 3,6 km/h
07.08.2017 16,0 C 76 % 1017,7 hPa 0,0 l/m 1,4 km/h S-SO 10,33 h 3,1 UV-I 430 W/m 2,4 km/h
08.08.2017 17,9 C 79 % 1009,4 hPa 0,4 l/m 8,0 km/h S-SO 3,25 h 1,7 UV-I 185 W/m 13,3 km/h
09.08.2017 16,2 C 82 % 1015,6 hPa 0,0 l/m 1,0 km/h S-SW 5,75 h 3,0 UV-I 322 W/m 3,6 km/h
10.08.2017 15,1 C 90 % 1018,4 hPa 10,0 l/m 0,0 km/h S-SO 0,42 h 1,8 UV-I 143 W/m 0,0 km/h
11.08.2017 12,6 C 96 % 1014,4 hPa 32,0 l/m 1,5 km/h N-NW 0,00 h 0,8 UV-I 55 W/m 7,6 km/h
12.08.2017 13,8 C 95 % 1014,8 hPa 13,4 l/m 2,5 km/h S 0,17 h 1,3 UV-I 99 W/m 10,9 km/h
13.08.2017 16,4 C 84 % 1019,7 hPa 2,8 l/m 0,3 km/h N-NW 7,92 h 3,2 UV-I 397 W/m 1,6 km/h
14.08.2017 17,8 C 83 % 1019,2 hPa 0,0 l/m 0,4 km/h SO 8,92 h 3,0 UV-I 375 W/m 2,8 km/h
15.08.2017 20,4 C 79 % 1014,9 hPa 0,0 l/m 1,5 km/h S-SO 5,75 h 2,4 UV-I 278 W/m 3,2 km/h
16.08.2017 18,9 C 78 % 1019,6 hPa 0,2 l/m 0,0 km/h N-NW 6,40 h 2,7 UV-I 358 W/m 1,2 km/h
17.08.2017 19,0 C 82 % 1015,1 hPa 0,2 l/m 3,5 km/h S 4,17 h 2,3 UV-I 226 W/m 4,8 km/h
18.08.2017 16,1 C 94 % 1011,8 hPa 19,0 l/m 0,0 km/h S 0,08 h 1,8 UV-I 108 W/m 0,0 km/h
19.08.2017 13,3 C 88 % 1016,7 hPa 1,4 l/m 3,0 km/h S 4,17 h 2,1 UV-I 254 W/m 8,9 km/h
20.08.2017 13,4 C 88 % 1021,4 hPa 4,2 l/m 1,2 km/h S-SW 2,00 h 1,6 UV-I 203 W/m 6,4 km/h
21.08.2017 12,4 C 85 % 1022,4 hPa 0,0 l/m 0,1 km/h W-NW 7,33 h 2,3 UV-I 323 W/m 0,8 km/h
22.08.2017 13,5 C 80 % 1020,4 hPa 0,2 l/m 0,0 km/h N-NO 8,00 h 2,4 UV-I 341 W/m 0,0 km/h
23.08.2017 16,7 C 79 % 1016,0 hPa 0,0 l/m 0,7 km/h SO 10,50 h 3,0 UV-I 408 W/m 2,4 km/h
24.08.2017 18,4 C 78 % 1015,3 hPa 0,0 l/m 1,3 km/h S 4,42 h 2,1 UV-I 247 W/m 8,4 km/h
25.08.2017 17,0 C 74 % 1017,2 hPa 0,0 l/m 0,5 km/h N-NW 9,17 h 2,7 UV-I 366 W/m 2,0 km/h
26.08.2017 19,7 C 84 % 1014,1 hPa 0,0 l/m 2,9 km/h S-SO 2,83 h 1,9 UV-I 213 W/m 4,0 km/h
27.08.2017 15,9 C 82 % 1017,7 hPa 0,0 l/m 1,0 km/h N-NW 9,98 h 2,8 UV-I 433 W/m 4,4 km/h
28.08.2017 16,0 C 80 % 1018,5 hPa 0,0 l/m 0,8 km/h SO 10,83 h 3,0 UV-I 412 W/m 3,2 km/h
29.08.2017 19,3 C 82 % 1013,2 hPa 0,0 l/m 0,0 km/h S 9,67 h 2,8 UV-I 371 W/m 0,4 km/h
30.08.2017 22,3 C 78 % 1006,6 hPa 0,0 l/m 2,4 km/h S-SO 7,08 h 2,4 UV-I 286 W/m 7,2 km/h
31.08.2017 14,6 C 92 % 1015,0 hPa 8,2 l/m 0,3 km/h N-NW 1,35 h 1,2 UV-I 121 W/m 2,4 km/h
01.09.2017 10,5 C 92 % 1019,7 hPa 0,6 l/m 0,0 km/h N-NO 6,08 h 1,8 UV-I 250 W/m 0,0 km/h
02.09.2017 11,8 C 93 % 1018,8 hPa 5,0 l/m 0,0 km/h N-NO 3,85 h 1,5 UV-I 214 W/m 0,0 km/h
03.09.2017 11,0 C 87 % 1015,9 hPa 0,2 l/m 0,3 km/h S 7,42 h 2,1 UV-I 321 W/m 2,0 km/h
04.09.2017 12,8 C 84 % 1016,4 hPa 0,0 l/m 0,0 km/h S-SW 9,17 h 2,3 UV-I 370 W/m 0,0 km/h
05.09.2017 16,1 C 89 % 1016,3 hPa 0,2 l/m 0,8 km/h S 2,58 h 2,4 UV-I 210 W/m 3,2 km/h
06.09.2017 13,9 C 87 % 1013,4 hPa 6,2 l/m 1,4 km/h NW 1,00 h 1,2 UV-I 121 W/m 7,7 km/h
07.09.2017 13,5 C 86 % 1013,2 hPa 0,6 l/m 0,9 km/h S-SW 2,17 h 1,6 UV-I 181 W/m 4,4 km/h
08.09.2017 13,9 C 90 % 1002,1 hPa 11,2 l/m 5,7 km/h S 0,00 h 1,0 UV-I 76 W/m 10,1 km/h
09.09.2017 12,6 C 91 % 997,7 hPa 7,4 l/m 3,9 km/h S-SO 2,25 h 1,6 UV-I 172 W/m 8,9 km/h
10.09.2017 11,8 C 82 % 1002,8 hPa 0,2 l/m 0,5 km/h S 4,43 h 1,9 UV-I 269 W/m 2,4 km/h
11.09.2017 13,8 C 80 % 997,6 hPa 4,0 l/m 14,4 km/h S 3,50 h 1,9 UV-I 238 W/m 27,3 km/h
12.09.2017 12,1 C 85 % 1005,4 hPa 2,4 l/m 1,8 km/h S 3,25 h 2,0 UV-I 237 W/m 11,3 km/h
13.09.2017 11,9 C 90 % 998,6 hPa 10,4 l/m 6,3 km/h S 2,33 h 1,7 UV-I 206 W/m 17,7 km/h
14.09.2017 10,4 C 91 % 1001,5 hPa 12,6 l/m 8,5 km/h S 1,42 h 1,5 UV-I 177 W/m 28,2 km/h
15.09.2017 10,2 C 89 % 1010,4 hPa 0,8 l/m 0,0 km/h S-SW 3,25 h 1,5 UV-I 221 W/m 0,0 km/h
16.09.2017 9,5 C 87 % 1010,9 hPa 0,2 l/m 0,6 km/h S 6,33 h 1,5 UV-I 267 W/m 4,4 km/h
17.09.2017 8,1 C 90 % 1012,8 hPa 2,6 l/m 0,0 km/h S 3,92 h 1,6 UV-I 243 W/m 0,0 km/h
18.09.2017 9,2 C 92 % 1014,3 hPa 2,6 l/m 0,5 km/h S 2,00 h 1,3 UV-I 178 W/m 4,4 km/h
19.09.2017 10,0 C 91 % 1017,3 hPa 0,6 l/m 0,0 km/h NW 2,08 h 1,0 UV-I 133 W/m 0,0 km/h
20.09.2017 11,3 C 92 % 1020,1 hPa 1,4 l/m 1,6 km/h W 0,58 h 1,1 UV-I 120 W/m 6,9 km/h
21.09.2017 9,7 C 90 % 1020,6 hPa 0,0 l/m 1,9 km/h SO 7,58 h 1,8 UV-I 297 W/m 3,6 km/h
22.09.2017 12,4 C 86 % 1020,5 hPa 0,4 l/m 0,3 km/h NW 4,92 h 1,9 UV-I 271 W/m 2,4 km/h
23.09.2017 12,5 C 95 % 1022,5 hPa 1,0 l/m 0,2 km/h NW 0,08 h 1,0 UV-I 115 W/m 1,6 km/h
24.09.2017 13,3 C 92 % 1022,2 hPa 0,0 l/m 0,0 km/h N 0,92 h 1,3 UV-I 140 W/m 0,0 km/h
25.09.2017 12,7 C 94 % 1020,8 hPa 7,0 l/m 0,1 km/h NO 1,08 h 1,1 UV-I 126 W/m 1,2 km/h
26.09.2017 12,6 C 93 % 1022,7 hPa 0,2 l/m 0,0 km/h SO 2,92 h 1,3 UV-I 193 W/m 0,0 km/h
27.09.2017 12,1 C 93 % 1023,4 hPa 0,0 l/m 0,8 km/h SO 5,17 h 1,4 UV-I 234 W/m 3,2 km/h
28.09.2017 14,7 C 92 % 1023,1 hPa 0,0 l/m 2,7 km/h S-SO 0,90 h 1,4 UV-I 145 W/m 4,4 km/h
29.09.2017 16,0 C 91 % 1019,7 hPa 0,0 l/m 6,6 km/h S-SO 3,67 h 1,4 UV-I 187 W/m 12,1 km/h
30.09.2017 13,6 C 95 % 1015,5 hPa 9,8 l/m 1,9 km/h S-SO 1,50 h 1,2 UV-I 140 W/m 10,4 km/h
01.10.2017 11,6 C 86 % 1019,5 hPa 0,0 l/m 1,8 km/h S-SO 7,25 h 1,7 UV-I 300 W/m 3,6 km/h
02.10.2017 13,6 C 87 % 1011,4 hPa 4,8 l/m 3,3 km/h S 1,08 h 1,0 UV-I 87 W/m 10,8 km/h
03.10.2017 11,1 C 92 % 1017,7 hPa 5,4 l/m 0,3 km/h S-SW 1,17 h 1,1 UV-I 125 W/m 8,8 km/h
04.10.2017 10,7 C 82 % 1017,8 hPa 0,2 l/m 3,2 km/h S-SW 0,75 h 1,0 UV-I 114 W/m 23,3 km/h
05.10.2017 9,8 C 93 % 1008,6 hPa 21,2 l/m 14,2 km/h S-SW 0,33 h 1,0 UV-I 70 W/m 33,0 km/h
06.10.2017 9,2 C 95 % 1016,4 hPa 2,2 l/m 10,6 km/h NW 0,42 h 0,7 UV-I 77 W/m 28,2 km/h
07.10.2017 9,3 C 94 % 1013,0 hPa 12,2 l/m 9,8 km/h S-SW 0,00 h 0,9 UV-I 78 W/m 21,3 km/h
08.10.2017 9,1 C 92 % 1015,6 hPa 4,6 l/m 2,1 km/h NW 1,25 h 1,1 UV-I 133 W/m 6,0 km/h
09.10.2017 9,8 C 92 % 1017,6 hPa 3,8 l/m 0,0 km/h S-SW 2,00 h 1,3 UV-I 155 W/m 0,0 km/h
10.10.2017 11,9 C 96 % 1014,5 hPa 12,6 l/m 4,3 km/h S-SW 0,00 h 0,8 UV-I 51 W/m 13,7 km/h
11.10.2017 12,8 C 87 % 1014,5 hPa 0,0 l/m 10,3 km/h S 0,00 h 0,7 UV-I 52 W/m 23,3 km/h
12.10.2017 12,1 C 85 % 1019,5 hPa 2,8 l/m 3,8 km/h S 1,90 h 1,1 UV-I 153 W/m 12,5 km/h
13.10.2017 12,7 C 91 % 1024,3 hPa 0,0 l/m 0,7 km/h S-SW 0,50 h 0,9 UV-I 108 W/m 4,8 km/h
14.10.2017 14,6 C 90 % 1025,6 hPa 0,0 l/m 0,8 km/h S 3,42 h 1,3 UV-I 178 W/m 4,0 km/h
15.10.2017 14,7 C 86 % 1022,8 hPa 0,2 l/m 2,4 km/h S 7,83 h 1,5 UV-I 253 W/m 4,8 km/h
16.10.2017 15,9 C 83 % 1021,9 hPa 0,2 l/m 1,5 km/h S 6,50 h 1,3 UV-I 211 W/m 5,2 km/h
17.10.2017 12,5 C 90 % 1019,3 hPa 0,0 l/m 0,0 km/h S 0,00 h 0,6 UV-I 140 W/m 0,0 km/h
18.10.2017 12,4 C 89 % 1013,3 hPa 0,2 l/m 1,7 km/h S 7,25 h 1,4 UV-I 234 W/m 2,8 km/h
19.10.2017 13,1 C 85 % 1011,4 hPa 0,2 l/m 4,0 km/h S 7,50 h 1,2 UV-I 225 W/m 6,0 km/h
20.10.2017 13,1 C 82 % 1010,9 hPa 4,6 l/m 4,4 km/h S 1,42 h 0,8 UV-I 85 W/m 10,1 km/h
21.10.2017 10,9 C 93 % 1011,6 hPa 3,0 l/m 6,8 km/h S 1,33 h 0,7 UV-I 90 W/m 14,9 km/h
22.10.2017 8,4 C 93 % 1011,3 hPa 8,4 l/m 3,2 km/h S 0,00 h 0,5 UV-I 45 W/m 12,5 km/h
23.10.2017 9,3 C 94 % 1017,6 hPa 9,0 l/m 1,2 km/h S-SW 0,00 h 0,6 UV-I 58 W/m 10,5 km/h
24.10.2017 12,3 C 97 % 1020,4 hPa 2,6 l/m 6,6 km/h S 0,00 h 0,7 UV-I 62 W/m 11,7 km/h
25.10.2017 13,5 C 93 % 1020,5 hPa 2,4 l/m 3,7 km/h S-SW 0,17 h 0,8 UV-I 67 W/m 21,3 km/h
26.10.2017 12,6 C 92 % 1021,6 hPa 0,4 l/m 0,5 km/h NW 0,75 h 0,8 UV-I 96 W/m 6,8 km/h
27.10.2017 9,8 C 90 % 1024,3 hPa 1,2 l/m 3,6 km/h N-NW 0,58 h 0,8 UV-I 81 W/m 16,9 km/h
28.10.2017 8,7 C 94 % 1013,1 hPa 3,4 l/m 10,7 km/h W-SW 0,00 h 0,6 UV-I 34 W/m 32,6 km/h
29.10.2017 6,4 C 89 % 1011,8 hPa 8,0 l/m 10,1 km/h NW 1,67 h 1,0 UV-I 110 W/m 27,0 km/h
30.10.2017 6,3 C 89 % 1024,6 hPa 0,4 l/m 2,7 km/h NW 1,25 h 0,9 UV-I 110 W/m 10,5 km/h
31.10.2017 6,6 C 94 % 1024,0 hPa 3,0 l/m 1,5 km/h S-SW 0,33 h 0,6 UV-I 64 W/m 4,0 km/h
01.11.2017 8,5 C 95 % 1018,9 hPa 8,8 l/m 0,4 km/h S-SW 0,08 h 0,6 UV-I 54 W/m 4,4 km/h
02.11.2017 9,3 C 90 % 1013,1 hPa 2,2 l/m 1,1 km/h W-SW 0,17 h 0,6 UV-I 47 W/m 8,9 km/h
03.11.2017 6,3 C 96 % 1015,2 hPa 0,0 l/m 0,0 km/h S-SO 0,17 h 0,6 UV-I 67 W/m 0,0 km/h
04.11.2017 9,1 C 93 % 1007,0 hPa 0,4 l/m 5,7 km/h S-SO 1,75 h 0,8 UV-I 114 W/m 9,7 km/h
05.11.2017 6,6 C 95 % 1009,7 hPa 14,6 l/m 0,2 km/h NW 0,00 h 0,5 UV-I 35 W/m 3,2 km/h
06.11.2017 4,4 C 96 % 1024,1 hPa 0,0 l/m 0,0 km/h W-SW 0,00 h 0,5 UV-I 51 W/m 0,0 km/h
07.11.2017 4,7 C 95 % 1020,9 hPa 0,2 l/m 0,0 km/h O-SO 1,50 h 0,7 UV-I 94 W/m 0,0 km/h
08.11.2017 5,9 C 95 % 1019,2 hPa 0,0 l/m 0,6 km/h NO 0,00 h 0,0 UV-I 21 W/m 3,6 km/h
09.11.2017 6,3 C 92 % 1021,1 hPa 0,4 l/m 1,7 km/h SW 0,00 h 0,5 UV-I 42 W/m 7,2 km/h
10.11.2017 5,8 C 94 % 1011,8 hPa 8,6 l/m 7,3 km/h S-SW 0,00 h 0,0 UV-I 19 W/m 21,3 km/h
11.11.2017 4,3 C 95 % 1007,4 hPa 2,6 l/m 4,2 km/h SW 0,10 h 0,6 UV-I 40 W/m 12,9 km/h
12.11.2017 2,6 C 96 % 1002,4 hPa 6,0 l/m 0,0 km/h N-NW 0,00 h 0,5 UV-I 40 W/m 0,0 km/h
13.11.2017 5,0 C 93 % 1017,0 hPa 1,2 l/m 0,7 km/h NW 3,08 h 0,7 UV-I 137 W/m 8,4 km/h
14.11.2017 5,4 C 91 % 1023,3 hPa 2,2 l/m 0,4 km/h S-SW 2,18 h 0,7 UV-I 108 W/m 4,0 km/h
15.11.2017 7,0 C 96 % 1025,1 hPa 2,8 l/m 0,0 km/h S 0,00 h 0,5 UV-I 57 W/m 0,0 km/h
16.11.2017 5,9 C 95 % 1022,8 hPa 1,8 l/m 2,4 km/h S-SO 0,00 h 0,6 UV-I 75 W/m 3,6 km/h
17.11.2017 3,4 C 92 % 1024,8 hPa 1,6 l/m 0,0 km/h S-SO 4,83 h 0,7 UV-I 169 W/m 0,0 km/h
18.11.2017 3,9 C 89 % 1015,5 hPa 4,6 l/m 6,9 km/h S-SW 0,00 h 0,5 UV-I 41 W/m 18,1 km/h
19.11.2017 3,7 C 95 % 1015,0 hPa 4,0 l/m 4,7 km/h W-SW 0,08 h 0,0 UV-I 33 W/m 20,9 km/h
20.11.2017 3,5 C 96 % 1013,6 hPa 17,4 l/m 2,3 km/h S-SO 0,00 h 0,0 UV-I 27 W/m 9,3 km/h
21.11.2017 9,0 C 98 % 1009,4 hPa 13,0 l/m 5,3 km/h SW 0,00 h 0,0 UV-I 23 W/m 23,7 km/h
Min-Datum 06.01.17 17.01.17 13.01.17 200 Tage 01.01.17 - - - - 01.01.17
Min-Zeit 07:55 04:05 04:05 - 00:00 - - - - 00:00
Minimum -11,6 C 0 % 979,3 hPa - 0,0 km/h - - - - 0,0 km/h
Max-Datum 26.09.17 03.01.17 06.01.17 25.07.17 23.02.17 - 19.06.17 18.06.17 18.06.17 23.02.17
Max-Zeit 19:20 18:10 09:20 17:30 16:15 - 20:10 12:25 13:35 16:15
Maximum 73,3 C 100 % 1041,8 hPa 37,4 l/m 47,7 km/h
S-SW
- 13,00 h 9,2 UV-I 1178 W/m 93,3 km/h
S-SW
Durchschnitt 10,4 C 84 % 1016,2 hPa #956,6 l/m 3,0 km/h S #1212:32 h 1,7 UV-I 204 W/m 8,7 km/h

Durchschnitt Minimum Temp.6,2 C
Durchschnitt Maximum Temp.14,8 C